GW1549 Weather Reports


time (UTC)temp
F
wind
direction
speed
knots
gust
knots
rain 1hr
in
rain 24hr
in
rain mn
in
humidity
%
barometer
mb
20260507041541 52 7 0.0 0.0 0.00 0.00 0.00 78 1008.8
20260507040932 52 12 0.0 0.0 0.00 0.00 0.00 77 1008.8
20260507040332 52 10 0.0 0.0 0.00 0.00 0.00 78 1008.8
20260507035713 52 7 0.0 0.0 0.00 0.00 0.54 76 1008.8
20260507035145 52 12 0.0 0.0 0.00 0.00 0.54 74 1009.1
20260507034518 52 358 0.0 0.0 0.00 0.00 0.54 74 1008.8
20260507033911 52 7 0.0 0.0 0.00 0.00 0.54 74 1008.8
20260507033343 53 9 0.0 0.0 0.00 0.00 0.54 75 1008.8
20260507032121 53 11 0.0 0.0 0.00 0.00 0.54 73 1009.1
20260507030950 53 4 0.0 0.0 0.00 0.00 0.54 76 1008.8
20260507030351 53 4 0.0 0.0 0.00 0.00 0.54 74 1008.8
20260507025726 53 13 0.0 0.0 0.00 0.00 0.54 75 1008.8
20260507024540 53 25 0.0 0.0 0.00 0.00 0.54 73 1008.8
20260507023911 54 9 0.0 0.0 0.00 0.00 0.54 72 1008.8
20260507023354 54 358 0.0 0.0 0.00 0.00 0.54 72 1008.8
20260507022710 54 4 0.0 0.0 0.00 0.00 0.54 71 1008.8
20260507022117 54 17 0.0 0.0 0.00 0.00 0.54 73 1008.8
20260507021541 54 14 0.0 0.0 0.00 0.00 0.54 72 1008.8
20260507020939 54 29 0.0 0.0 0.00 0.00 0.54 72 1008.8
20260507020318 54 16 0.0 0.0 0.00 0.00 0.54 73 1008.8
20260507015728 55 358 0.0 0.0 0.00 0.00 0.54 73 1008.4
20260507015145 55 352 0.0 0.0 0.00 0.00 0.54 75 1008.1
20260507014513 55 17 0.0 0.0 0.00 0.00 0.54 74 1008.1
20260507013930 55 12 0.0 0.0 0.00 0.00 0.54 73 1008.1
20260507013354 55 29 0.0 0.0 0.00 0.00 0.54 74 1007.7
20260507012144 55 46 0.0 0.0 0.00 0.00 0.54 74 1007.7
20260507011532 55 355 0.9 1.7 0.00 0.00 0.54 75 1007.7
20260507010953 55 356 0.0 0.0 0.00 0.00 0.54 78 1007.7
20260507010329 55 17 0.0 0.0 0.00 0.00 0.54 77 1007.4
20260507005135 56 8 0.0 0.0 0.00 0.00 0.54 74 1007.4
20260507004543 56 19 0.0 0.0 0.00 0.00 0.54 74 1007.1
20260507003344 56 17 0.0 0.0 0.00 0.00 0.54 72 1007.1
20260507002728 56 13 0.0 0.0 0.00 0.00 0.54 74 1007.1
20260507001548 57 18 0.0 0.0 0.00 0.00 0.54 69 1007.4
20260507000314 57 35 0.0 0.0 0.00 0.00 0.54 70 1006.7
20260506235728 57 2 0.0 0.0 0.00 0.00 0.54 68 1006.7
20260506235133 57 17 0.0 0.0 0.00 0.00 0.54 68 1006.7
20260506234523 58 14 0.0 0.0 0.00 0.00 0.54 69 1006.7
20260506233939 58 12 0.0 0.0 0.00 0.00 0.54 68 1006.7
20260506233351 58 10 0.0 0.0 0.00 0.00 0.54 66 1006.4
20260506232743 58 21 0.0 0.0 0.00 0.00 0.54 69 1006.4
20260506232149 58 0 0.0 0.0 0.00 0.00 0.54 66 1006.7
20260506231525 59 5 0.0 0.0 0.00 0.00 0.54 64 1006.4
20260506230932 59 9 0.0 0.0 0.00 0.00 0.54 65 1006.4
20260506230329 59 8 0.0 0.0 0.00 0.00 0.54 64 1006.4
20260506225711 59 190 1.7 2.6 0.00 0.00 0.54 65 1007.1
20260506225110 60 282 0.0 0.9 0.00 0.00 0.54 66 1006.7
20260506224517 60 37 0.0 0.9 0.00 0.00 0.54 69 1006.7
20260506223932 60 15 0.0 0.0 0.00 0.00 0.54 68 1006.7
20260506223327 60 353 0.0 0.9 0.00 0.00 0.54 66 1006.7
20260506222722 61 335 0.9 1.7 0.00 0.00 0.54 68 1006.7
20260506222144 61 355 0.0 0.0 0.00 0.00 0.54 69 1006.4
20260506221515 61 15 0.0 0.0 0.00 0.00 0.54 72 1006.4
20260506220917 62 323 0.0 0.0 0.00 0.00 0.54 69 1006.4
20260506220343 61 356 0.0 0.0 0.00 0.00 0.54 68 1006.4
20260506215738 61 1 0.0 0.0 0.00 0.00 0.54 67 1006.4
20260506215141 61 55 0.0 0.0 0.00 0.00 0.54 68 1006.7
20260506214549 62 323 1.7 1.7 0.00 0.00 0.54 67 1006.4
20260506213317 61 13 0.0 0.0 0.00 0.00 0.54 69 1006.0
20260506212713 62 239 0.9 1.7 0.00 0.00 0.54 71 1006.0
20260506212127 62 39 0.0 0.0 0.00 0.00 0.54 69 1006.4
20260506210929 62 331 0.0 0.0 0.00 0.00 0.54 70 1006.0
20260506210347 62 250 1.7 1.7 0.00 0.00 0.54 69 1006.0
20260506204531 61 331 0.0 0.0 0.00 0.00 0.54 72 1006.0
20260506203311 62 50 0.0 0.0 0.00 0.00 0.54 72 1006.4
20260506202713 62 340 0.0 0.0 0.00 0.00 0.54 73 1006.0
20260506201533 62 6 0.0 0.0 0.00 0.00 0.54 72 1006.4
20260506200314 61 15 0.0 0.0 0.00 0.00 0.54 73 1006.0
20260506195752 62 52 0.9 1.7 0.00 0.00 0.54 72 1006.0
20260506194536 60 251 0.0 0.0 0.00 0.00 0.54 74 1006.0
20260506193953 60 348 0.0 0.0 0.00 0.00 0.54 74 1006.0
20260506193353 60 203 1.7 1.7 0.00 0.00 0.54 75 1005.7
20260506192743 60 340 2.6 3.5 0.00 0.00 0.54 74 1006.0
20260506192132 61 268 0.9 1.7 0.00 0.00 0.54 73 1006.0
20260506191543 61 265 0.9 0.9 0.00 0.00 0.54 74 1005.7
20260506190913 61 13 0.0 0.0 0.00 0.00 0.54 75 1005.7
20260506190340 60 15 0.0 0.0 0.00 0.00 0.54 77 1006.0
20260506185719 60 359 0.0 0.0 0.00 0.00 0.54 76 1006.0
20260506184536 60 323 1.7 2.6 0.00 0.00 0.54 76 1006.0
20260506183920 60 65 0.9 1.7 0.00 0.00 0.54 77 1006.0
20260506183330 59 318 0.0 0.0 0.00 0.00 0.54 79 1006.0
20260506182741 60 8 0.0 0.0 0.00 0.00 0.54 78 1006.0
20260506181541 60 20 0.0 0.9 0.00 0.00 0.54 77 1006.0
20260506180936 60 297 0.9 1.7 0.00 0.00 0.54 77 1005.7
20260506180354 60 308 1.7 1.7 0.00 0.00 0.54 77 1005.7
20260506175748 60 324 0.0 0.0 0.00 0.00 0.54 78 1006.0
20260506175127 59 30 0.0 0.0 0.00 0.00 0.54 78 1006.4
20260506174531 60 345 0.0 0.0 0.00 0.00 0.54 78 1006.0
20260506173943 59 42 1.7 2.6 0.00 0.00 0.54 79 1006.0
20260506173318 59 307 2.6 5.2 0.00 0.00 0.54 77 1006.0
20260506172712 60 307 1.7 2.6 0.00 0.00 0.54 77 1006.0
20260506172141 59 159 0.0 0.9 0.00 0.00 0.54 80 1006.0
20260506170953 58 83 0.0 0.9 0.00 0.00 0.54 80 1006.4
20260506170310 57 285 0.0 0.0 0.00 0.00 0.54 81 1006.4
20260506163946 55 70 0.9 0.9 0.00 0.00 0.54 87 1006.0
20260506163334 54 340 0.0 0.9 0.00 0.00 0.54 90 1006.4
20260506162749 54 288 0.9 1.7 0.00 0.00 0.54 92 1006.0
20260506162115 54 26 0.0 0.0 0.00 0.00 0.54 96 1006.0
20260506161546 52 258 0.9 1.7 0.00 0.00 0.54 98 1006.4
20260506160934 53 10 0.0 0.9 0.00 0.00 0.54 99 1006.7
20260506160351 52 44 1.7 2.6 0.00 0.00 0.54 99 1006.7
20260506155712 52 25 0.0 0.9 0.00 0.00 0.54 99 1006.4
20260506155128 52 17 0.0 0.0 0.00 0.00 0.54 99 1006.4
20260506154542 51 301 0.0 0.0 0.00 0.00 0.54 99 1006.0
20260506153930 51 342 0.0 0.0 0.00 0.00 0.54 99 1006.4
20260506153334 51 78 0.0 0.0 0.00 0.00 0.54 99 1005.7
20260506152733 51 0 0.0 0.0 0.00 0.00 0.54 99 1006.0
20260506151533 51 359 0.9 1.7 0.00 0.00 0.54 99 1006.0
20260506150933 51 52 0.0 0.0 0.00 0.00 0.54 99 1006.0
20260506150311 51 13 0.0 0.0 0.00 0.00 0.54 99 1005.4
20260506145750 51 46 0.0 0.0 0.00 0.00 0.54 99 1005.4
20260506145133 50 50 0.0 0.0 0.00 0.00 0.54 99 1005.4
20260506144538 51 332 1.7 2.6 0.00 0.00 0.54 99 1005.4
20260506143929 51 18 0.0 0.0 0.00 0.00 0.54 99 1005.4
20260506143317 50 297 0.0 0.9 0.00 0.00 0.54 99 1005.4
20260506142716 51 12 0.0 0.0 0.00 0.00 0.54 99 1005.4
20260506142117 51 25 0.0 0.0 0.00 0.00 0.54 99 1005.0
20260506141523 51 33 0.0 0.0 0.00 0.00 0.54 99 1005.0
20260506140935 51 7 0.0 0.0 0.00 0.00 0.54 99 1004.7
20260506140343 51 354 0.0 0.0 0.00 0.00 0.54 99 1004.7
20260506135734 51 19 0.0 0.0 0.00 0.00 0.54 99 1004.7
20260506135139 52 11 0.0 0.0 0.00 0.00 0.54 99 1004.7
20260506134512 52 10 0.0 0.0 0.00 0.00 0.54 99 1004.7
20260506133920 52 20 0.0 0.0 0.00 0.00 0.54 99 1004.4
20260506133350 52 40 0.0 0.0 0.00 0.00 0.54 99 1004.4
20260506132744 52 356 0.0 0.0 0.00 0.00 0.53 99 1004.0
20260506132120 52 358 1.7 2.6 0.00 0.00 0.53 99 1003.7
20260506131514 52 340 0.9 1.7 0.00 0.00 0.52 99 1003.7
20260506130920 53 337 0.0 0.0 0.00 0.00 0.52 99 1003.7
20260506125727 54 333 0.0 0.0 0.00 0.00 0.52 99 1003.3
20260506125146 54 286 0.0 0.0 0.00 0.00 0.52 99 1003.0
20260506124511 54 250 0.9 5.2 0.00 0.00 0.52 99 1003.0
20260506123932 54 296 1.7 2.6 0.00 0.00 0.52 99 1002.7
20260506123320 54 25 0.0 0.0 0.00 0.00 0.52 99 1002.7
20260506122715 55 6 0.0 0.0 0.00 0.00 0.52 99 1002.7
20260506122149 56 285 0.9 1.7 0.00 0.00 0.52 99 1002.7
20260506121518 56 57 0.0 0.0 0.00 0.00 0.52 99 1002.3
20260506120310 57 332 0.0 0.0 0.00 0.00 0.52 99 1002.7
20260506115715 58 332 0.0 0.0 0.00 0.00 0.52 99 1002.0
20260506115122 58 209 0.0 0.0 0.00 0.00 0.52 99 1002.0
20260506114533 57 307 0.0 0.0 0.00 0.00 0.52 99 1002.0
20260506113948 57 76 0.0 0.0 0.00 0.00 0.52 99 1001.6
20260506112733 57 350 0.0 0.0 0.00 0.00 0.52 99 1001.3
20260506111515 57 343 0.0 0.0 0.00 0.00 0.52 99 1001.3
20260506110913 57 232 0.0 0.9 0.00 0.00 0.52 99 1001.3
20260506105711 57 227 0.9 0.9 0.00 0.00 0.51 99 1001.3
20260506105146 57 163 0.0 0.0 0.00 0.00 0.51 99 1001.0
20260506103921 57 211 0.9 1.7 0.00 0.00 0.51 99 1001.3
20260506103351 57 63 0.9 0.9 0.00 0.00 0.51 99 1001.0
20260506102708 57 307 0.9 0.9 0.00 0.00 0.50 99 1001.0
20260506102109 57 223 1.7 2.6 0.00 0.00 0.50 99 1000.6
20260506100950 57 222 1.7 1.7 0.00 0.00 0.50 99 1001.3
20260506095711 57 204 1.7 1.7 0.00 0.00 0.49 99 1001.3
20260506095149 57 203 1.7 1.7 0.00 0.00 0.49 99 1001.3
20260506094538 57 260 0.0 0.0 0.00 0.00 0.48 99 1001.3
20260506093321 57 332 0.0 0.0 0.00 0.00 0.47 99 1001.3
20260506092747 57 359 0.0 0.0 0.00 0.00 0.47 99 1001.0
20260506092113 57 78 0.0 0.0 0.00 0.00 0.46 99 1001.3
20260506090323 57 15 0.0 0.0 0.00 0.00 0.42 99 1001.3
20260506085736 57 17 0.0 0.0 0.00 0.00 0.41 99 1001.3
20260506085114 57 12 0.0 0.0 0.00 0.00 0.41 99 1001.3
20260506083926 57 7 0.0 0.0 0.00 0.00 0.39 99 1001.3
20260506083337 57 5 0.0 0.0 0.00 0.00 0.39 99 1001.3
20260506082737 57 6 0.0 0.0 0.00 0.00 0.38 99 1001.3
20260506082142 57 335 0.9 0.9 0.00 0.00 0.38 99 1001.0
20260506081514 57 349 0.0 0.0 0.00 0.00 0.38 98 1001.0
20260506080930 57 33 0.0 0.0 0.00 0.00 0.37 98 1001.0
20260506080318 57 35 0.0 0.0 0.00 0.00 0.36 98 1001.0
20260506073309 58 22 0.0 0.0 0.00 0.00 0.30 97 1001.0
20260506072709 58 7 0.0 0.0 0.00 0.00 0.28 97 1001.3
20260506072143 58 7 0.0 0.0 0.00 0.00 0.24 97 1001.3
20260506071550 58 339 0.0 0.0 0.00 0.00 0.22 96 1001.3
20260506070907 58 27 0.0 0.0 0.00 0.00 0.22 96 1001.6
20260506070330 58 27 0.0 0.0 0.00 0.00 0.21 95 1001.3
20260506062127 59 200 2.6 2.6 0.00 0.00 0.04 90 1001.6
20260506061510 59 219 1.7 1.7 0.00 0.00 0.04 90 1001.6
20260506060342 59 318 0.0 0.0 0.00 0.00 0.01 89 1001.3
20260506050949 59 25 0.0 0.0 0.00 0.00 0.01 91 1001.6
20260506050336 58 36 0.0 0.0 0.00 0.00 0.01 92 1001.6
20260506044516 59 13 0.0 0.0 0.00 0.00 0.01 90 1002.7
20260506043920 58 356 0.0 0.0 0.00 0.00 0.01 90 1002.3